Time,TemperatureF,DewpointF,PressureIn,WindDirection,WindDirectionDegrees,WindSpeedMPH,WindSpeedGustMPH,Humidity,HourlyPrecipIn,Conditions,Clouds,dailyrainin,SoftwareType,DateUTC
2013-12-18 00:22:00,32.0,23.0,-100.00,SE,135,1.0,-999.0,68,-99.99,,,-99.99,,2013-12-18 06:22:00,
2013-12-18 00:53:00,32.0,23.0,-100.00,SE,135,1.0,-999.0,69,-99.99,,,-99.99,,2013-12-18 06:53:00,
2013-12-18 01:22:00,33.0,24.0,-100.00,SE,135,1.0,-999.0,69,-99.99,,,-99.99,,2013-12-18 07:22:00,
2013-12-18 01:53:00,33.0,24.0,-100.00,SE,135,2.0,-999.0,70,-99.99,,,-99.99,,2013-12-18 07:53:00,
2013-12-18 02:22:00,34.0,24.0,-100.00,SE,135,2.0,-999.0,65,-99.99,,,-99.99,,2013-12-18 08:22:00,
2013-12-18 02:52:00,34.0,24.0,-100.00,SE,135,2.0,-999.0,66,-99.99,,,-99.99,,2013-12-18 08:52:00,
2013-12-18 03:22:00,34.0,24.0,-100.00,SE,135,1.0,-999.0,66,-99.99,,,-99.99,,2013-12-18 09:22:00,
2013-12-18 03:53:00,34.0,24.0,-100.00,SE,135,1.0,-999.0,67,-99.99,,,-99.99,,2013-12-18 09:53:00,
2013-12-18 04:23:00,34.0,24.0,-100.00,SSE,158,1.0,-999.0,67,-99.99,,,-99.99,,2013-12-18 10:23:00,
2013-12-18 04:52:00,39.0,25.0,-100.00,SSE,158,2.0,-999.0,57,-99.99,,,-99.99,,2013-12-18 10:52:00,
2013-12-18 05:23:00,40.0,25.0,-100.00,SSE,158,1.0,-999.0,54,-99.99,,,-99.99,,2013-12-18 11:23:00,
2013-12-18 05:53:00,41.0,25.0,-100.00,SSW,203,2.0,-999.0,53,-99.99,,,-99.99,,2013-12-18 11:53:00,
2013-12-18 06:22:00,40.0,26.0,-100.00,South,180,1.0,-999.0,55,-99.99,,,-99.99,,2013-12-18 12:22:00,
2013-12-18 06:52:00,40.0,26.0,-100.00,South,180,1.0,-999.0,56,-99.99,,,-99.99,,2013-12-18 12:52:00,
2013-12-18 07:22:00,40.0,26.0,-100.00,SSW,203,2.0,-999.0,57,-99.99,,,-99.99,,2013-12-18 13:22:00,
2013-12-18 07:52:00,39.0,27.0,-100.00,SSW,203,2.0,-999.0,60,-99.99,,,-99.99,,2013-12-18 13:52:00,
2013-12-18 08:21:00,40.0,26.0,-100.00,South,180,1.0,-999.0,59,-99.99,,,-99.99,,2013-12-18 14:21:00,
2013-12-18 08:52:00,41.0,27.0,-100.00,South,180,2.0,-999.0,57,-99.99,,,-99.99,,2013-12-18 14:52:00,
2013-12-18 09:22:00,42.0,28.0,-100.00,South,180,3.0,-999.0,57,-99.99,,,-99.99,,2013-12-18 15:22:00,
2013-12-18 09:53:00,44.0,28.0,-100.00,SSW,203,2.0,-999.0,53,-99.99,,,-99.99,,2013-12-18 15:53:00,
2013-12-18 11:22:00,51.0,30.0,-100.00,SSW,203,5.0,-999.0,44,-99.99,,,-99.99,,2013-12-18 17:22:00,
2013-12-18 11:52:00,53.0,31.0,-100.00,SW,225,4.0,-999.0,43,-99.99,,,-99.99,,2013-12-18 17:52:00,
2013-12-18 12:22:00,54.0,30.0,-100.00,SSW,203,3.0,-999.0,40,-99.99,,,-99.99,,2013-12-18 18:22:00,
2013-12-18 12:52:00,55.0,30.0,-100.00,SW,225,3.0,-999.0,39,-99.99,,,-99.99,,2013-12-18 18:52:00,
2013-12-18 13:11:00,56.0,31.0,-100.00,SSW,203,3.0,-999.0,39,-99.99,,,-99.99,,2013-12-18 19:11:00,
2013-12-18 13:21:00,57.0,32.0,-100.00,SSW,203,2.0,-999.0,38,-99.99,,,-99.99,,2013-12-18 19:21:00,
2013-12-18 13:52:00,59.0,31.0,-100.00,South,180,2.0,-999.0,35,-99.99,,,-99.99,,2013-12-18 19:52:00,
2013-12-18 14:53:00,62.0,31.0,-100.00,SSW,203,3.0,-999.0,32,-99.99,,,-99.99,,2013-12-18 20:53:00,
2013-12-18 15:21:00,61.0,31.0,-100.00,SSW,203,3.0,-999.0,32,-99.99,,,-99.99,,2013-12-18 21:21:00,
2013-12-18 15:53:00,61.0,30.0,-100.00,SSW,203,2.0,-999.0,32,-99.99,,,-99.99,,2013-12-18 21:53:00,
2013-12-18 16:23:00,60.0,30.0,-100.00,SSW,203,2.0,-999.0,32,-99.99,,,-99.99,,2013-12-18 22:23:00,
2013-12-18 16:52:00,56.0,30.0,-100.00,SSW,203,1.0,-999.0,36,-99.99,,,-99.99,,2013-12-18 22:52:00,
2013-12-18 17:22:00,55.0,30.0,-100.00,SSE,158,1.0,-999.0,39,-99.99,,,-99.99,,2013-12-18 23:22:00,
2013-12-18 17:53:00,53.0,30.0,-100.00,SSE,158,1.0,-999.0,41,-99.99,,,-99.99,,2013-12-18 23:53:00,
2013-12-18 18:22:00,48.0,29.0,-100.00,SE,135,0.0,-999.0,47,-99.99,,,-99.99,,2013-12-19 00:22:00,
2013-12-18 18:52:00,47.0,29.0,-100.00,NW,315,0.0,-999.0,50,-99.99,,,-99.99,,2013-12-19 00:52:00,
2013-12-18 19:21:00,44.0,28.0,-100.00,NW,315,1.0,-999.0,54,-99.99,,,-99.99,,2013-12-19 01:21:00,
2013-12-18 19:52:00,41.0,28.0,-100.00,SSW,203,0.0,-999.0,59,-99.99,,,-99.99,,2013-12-19 01:52:00,
2013-12-18 20:22:00,38.0,27.0,-100.00,ENE,68,0.0,-999.0,65,-99.99,,,-99.99,,2013-12-19 02:22:00,
2013-12-18 21:21:00,40.0,29.0,-100.00,WNW,293,1.0,-999.0,65,-99.99,,,-99.99,,2013-12-19 03:21:00,
2013-12-18 21:54:00,42.0,28.0,-100.00,WSW,248,1.0,-999.0,59,-99.99,,,-99.99,,2013-12-19 03:54:00,
2013-12-18 22:23:00,39.0,28.0,-100.00,NNE,23,1.0,-999.0,65,-99.99,,,-99.99,,2013-12-19 04:23:00,
2013-12-18 22:53:00,39.0,28.0,-100.00,SSW,203,0.0,-999.0,65,-99.99,,,-99.99,,2013-12-19 04:53:00,
2013-12-18 23:22:00,36.0,29.0,-100.00,South,180,0.0,-999.0,73,-99.99,,,-99.99,,2013-12-19 05:22:00,
2013-12-18 23:52:00,35.0,28.0,-100.00,West,270,0.0,-999.0,76,-99.99,,,-99.99,,2013-12-19 05:52:00,